{"data":{"norad_id":35932,"epoch":"2026-05-25T04:19:15.614112Z","epoch_age_seconds":73589,"freshness":"FRESH","line1":"1 35932U 09051B   26145.18004183  .00000867  00000+0  18113-3 0  9997","line2":"2 35932  98.4052  52.6668 0005520 290.4540  69.6068 14.62429289885790","mean_motion":14.62429289,"eccentricity":0.000552,"inclination_deg":98.4052,"raan_deg":52.6668,"arg_perigee_deg":290.454,"mean_anomaly_deg":69.6068,"bstar":0.00018113,"rev_number":88579,"period_min":98.466299248196,"perigee_km":681.44185561419,"apogee_km":689.23993521073,"semimajor_km":7063.4778954125,"source":"CELESTRAK","updated_at":"2026-05-25T13:38:25.488002Z"}}